TimeMST,TemperatureF,Dew PointF,Humidity,Sea Level PressureIn,VisibilityMPH,Wind Direction,Wind SpeedMPH,Gust SpeedMPH,PrecipitationIn,Events,Conditions,WindDirDegrees,DateUTC
12:58 AM,76.8,26.1,15,29.77,10.0,SSW,8.1,-,N/A,,Clear,210,2013-05-24 07:58:00
1:58 AM,75.7,25.7,16,29.77,10.0,South,8.1,-,N/A,,Clear,190,2013-05-24 08:58:00
2:58 AM,74.5,26.8,17,29.79,10.0,SSE,2.3,-,N/A,,Clear,150,2013-05-24 09:58:00
3:58 AM,70.7,29.1,21,29.79,10.0,ENE,3.5,-,N/A,,Clear,70,2013-05-24 10:58:00
4:58 AM,66.4,31.6,27,29.82,10.0,NNW,4.6,-,N/A,,Clear,340,2013-05-24 11:58:00
5:58 AM,66.2,32.5,29,29.83,10.0,North,4.6,-,N/A,,Clear,360,2013-05-24 12:58:00
6:58 AM,72.7,35.6,26,29.86,10.0,North,4.6,-,N/A,,Clear,360,2013-05-24 13:58:00
7:58 AM,77.5,31.1,18,29.87,10.0,NNE,4.6,-,N/A,,Clear,30,2013-05-24 14:58:00
8:58 AM,82.2,27.3,13,29.86,10.0,East,4.6,-,N/A,,Clear,100,2013-05-24 15:58:00
9:58 AM,85.6,26.8,12,29.86,10.0,SE,3.5,-,N/A,,Clear,130,2013-05-24 16:58:00
10:58 AM,88.7,30.6,12,29.85,10.0,Variable,3.5,-,N/A,,Clear,0,2013-05-24 17:58:00
11:58 AM,89.6,32.0,13,29.83,10.0,WNW,1.2,-,N/A,,Clear,290,2013-05-24 18:58:00
12:58 PM,93.6,32.2,11,29.81,10.0,East,8.1,-,N/A,,Partly Cloudy,80,2013-05-24 19:58:00
1:06 PM,93.2,32.0,11,29.84,10.0,SSW,13.8,18.4,N/A,,Light Drizzle,200,2013-05-24 20:06:00
1:19 PM,93.2,32.0,11,29.83,10.0,SSW,11.5,-,N/A,,Clear,200,2013-05-24 20:19:00
1:58 PM,95.5,28.9,9,29.79,10.0,SW,8.1,17.3,0.00,,Clear,220,2013-05-24 20:58:00
2:58 PM,95.5,28.9,9,29.78,10.0,SW,12.7,17.3,N/A,,Clear,230,2013-05-24 21:58:00
3:58 PM,97.3,30.2,9,29.76,10.0,WSW,16.1,21.9,N/A,,Clear,240,2013-05-24 22:58:00
4:58 PM,96.6,26.8,8,29.75,10.0,SSW,18.4,-,N/A,,Clear,210,2013-05-24 23:58:00
5:58 PM,95.4,22.6,7,29.75,10.0,WSW,15.0,-,N/A,,Clear,240,2013-05-25 00:58:00
6:58 PM,92.3,16.7,6,29.75,10.0,SW,12.7,-,N/A,,Clear,230,2013-05-25 01:58:00
7:58 PM,88.3,20.5,8,29.77,10.0,SW,5.8,-,N/A,,Clear,220,2013-05-25 02:58:00
8:58 PM,84.2,24.8,11,29.77,10.0,SW,9.2,-,N/A,,Clear,230,2013-05-25 03:58:00
9:58 PM,83.3,21.7,10,29.79,10.0,North,1.2,-,N/A,,Clear,350,2013-05-25 04:58:00
10:58 PM,82.9,21.6,10,29.79,10.0,SSW,5.8,-,N/A,,Clear,200,2013-05-25 05:58:00
11:58 PM,79.9,23.5,12,29.79,10.0,SE,5.8,-,N/A,,Clear,140,2013-05-25 06:58:00